When you browse on this site, cookies collect data to enhance your experience and personalize the content and advertising you see.
Visit our Privacy Policy to learn more. By continuing to use the site, you agree to this use of cookies and data.
  • en France
  • Liste des pays
  • À 7 jours
  • Température de l'eau
  • Carte satellitaire
  • Carte météo
  • Widgets météo
  • user-avatar
    Se connecter

    Météo par heure à Cobija

    Ce jour, 22 Mai, Mercredi

    Heure Température Précipitation Vent Pression Humidité
    00:00 +23°C° 0 mm 0 m/s 739 mmHg 93%
    01:00 +23°C° 0 mm 0 m/s 739 mmHg 94%
    02:00 +23°C° 0 mm 0 m/s 738 mmHg 94%
    03:00 +23°C° 0 mm 0 m/s 738 mmHg 94%
    04:00 +23°C° 0 mm 0 m/s 738 mmHg 94%
    05:00 +23°C° 0.8 mm 0 m/s 739 mmHg 95%
    06:00 +23°C° 0.8 mm 0 m/s 739 mmHg 95%
    07:00 +23°C° 0.8 mm 0 m/s 739 mmHg 95%
    08:00 +25°C° 1.4 mm 0 m/s 740 mmHg 92%
    09:00 +26°C° 1.4 mm 0 m/s 740 mmHg 89%
    10:00 +29°C° 1.4 mm 1 m/s 740 mmHg 86%
    11:00 +30°C° 0.9 mm 1 m/s 739 mmHg 82%
    12:00 +31°C° 0.9 mm 1 m/s 739 mmHg 77%
    13:00 +31°C° 0.9 mm 1 m/s 738 mmHg 73%
    14:00 +31°C° 0.2 mm 1 m/s 737 mmHg 76%
    15:00 +30°C° 0.2 mm 1 m/s 737 mmHg 78%
    16:00 +29°C° 0.2 mm 1 m/s 736 mmHg 81%
    17:00 +28°C° 0 mm 1 m/s 737 mmHg 85%
    18:00 +25°C° 0 mm 0 m/s 737 mmHg 88%
    19:00 +24°C° 0 mm 0 m/s 737 mmHg 92%
    20:00 +24°C° 0 mm 0 m/s 738 mmHg 91%
    21:00 +24°C° 0 mm 0 m/s 738 mmHg 90%
    22:00 +23°C° 0 mm 0 m/s 739 mmHg 89%
    23:00 +23°C° 0.2 mm 0 m/s 739 mmHg 90%

    Demain, 23 Mai, Jeudi

    Heure Température Précipitation Vent Pression Humidité
    00:00 +23°C° 0.2 mm 0 m/s 739 mmHg 91%
    01:00 +23°C° 0.2 mm 0 m/s 739 mmHg 92%
    02:00 +22°C° 0.2 mm 0 m/s 739 mmHg 93%
    03:00 +22°C° 0.2 mm 0 m/s 738 mmHg 95%
    04:00 +22°C° 0.2 mm 0 m/s 738 mmHg 96%
    05:00 +22°C° 2.2 mm 0 m/s 739 mmHg 97%
    06:00 +22°C° 2.2 mm 0 m/s 740 mmHg 98%
    07:00 +22°C° 2.2 mm 0 m/s 740 mmHg 98%
    08:00 +26°C° 0.1 mm 1 m/s 741 mmHg 91%
    09:00 +28°C° 0.1 mm 1 m/s 741 mmHg 83%
    10:00 +29°C° 0.1 mm 1 m/s 741 mmHg 75%
    11:00 +29°C° 0.9 mm 1 m/s 741 mmHg 80%
    12:00 +29°C° 0.9 mm 1 m/s 740 mmHg 84%
    13:00 +29°C° 0.9 mm 1 m/s 739 mmHg 89%
    14:00 +29°C° 0.3 mm 1 m/s 738 mmHg 87%
    15:00 +29°C° 0.3 mm 1 m/s 738 mmHg 85%
    16:00 +29°C° 0.3 mm 1 m/s 737 mmHg 83%
    17:00 +28°C° 0 mm 1 m/s 738 mmHg 86%
    18:00 +27°C° 0 mm 1 m/s 738 mmHg 90%
    19:00 +25°C° 0 mm 1 m/s 739 mmHg 93%
    20:00 +25°C° 0 mm 1 m/s 739 mmHg 93%
    21:00 +25°C° 0 mm 1 m/s 740 mmHg 92%
    22:00 +25°C° 0 mm 2 m/s 740 mmHg 91%
    23:00 +25°C° 0 mm 2 m/s 740 mmHg 90%

    Après-demain, 24 Mai, Vendredi

    Heure Température Précipitation Vent Pression Humidité
    00:00 +24°C° 0 mm 2 m/s 740 mmHg 89%
    01:00 +24°C° 0 mm 2 m/s 740 mmHg 88%
    02:00 +24°C° 0 mm 2 m/s 740 mmHg 87%
    03:00 +23°C° 0 mm 2 m/s 740 mmHg 85%
    04:00 +23°C° 0 mm 2 m/s 740 mmHg 84%
    05:00 +21°C° 0 mm 2 m/s 741 mmHg 83%
    06:00 +21°C° 0 mm 2 m/s 741 mmHg 82%
    07:00 +20°C° 0 mm 2 m/s 742 mmHg 81%
    08:00 +23°C° 0 mm 2 m/s 742 mmHg 75%
    09:00 +24°C° 0 mm 2 m/s 742 mmHg 69%
    10:00 +26°C° 0 mm 2 m/s 743 mmHg 63%
    11:00 +27°C° 0 mm 2 m/s 742 mmHg 60%
    12:00 +28°C° 0 mm 2 m/s 741 mmHg 57%
    13:00 +30°C° 0 mm 2 m/s 740 mmHg 54%
    14:00 +29°C° 0 mm 2 m/s 739 mmHg 56%
    15:00 +29°C° 0 mm 2 m/s 738 mmHg 58%
    16:00 +29°C° 0 mm 1 m/s 738 mmHg 60%
    17:00 +27°C° 0 mm 1 m/s 738 mmHg 66%
    18:00 +26°C° 0 mm 1 m/s 738 mmHg 73%
    19:00 +24°C° 0 mm 1 m/s 739 mmHg 79%
    20:00 +24°C° 0 mm 1 m/s 739 mmHg 80%
    21:00 +23°C° 0 mm 1 m/s 740 mmHg 81%
    22:00 +23°C° 0 mm 1 m/s 740 mmHg 82%
    23:00 +22°C° 0 mm 1 m/s 740 mmHg 84%

    25 Mai, Samedi

    Heure Température Précipitation Vent Pression Humidité
    00:00 +22°C° 0 mm 1 m/s 740 mmHg 86%
    01:00 +22°C° 0 mm 1 m/s 739 mmHg 87%
    02:00 +21°C° 0 mm 1 m/s 739 mmHg 88%
    03:00 +21°C° 0 mm 1 m/s 739 mmHg 89%
    04:00 +21°C° 0 mm 1 m/s 739 mmHg 90%
    05:00 +21°C° 0 mm 1 m/s 739 mmHg 87%
    06:00 +22°C° 0 mm 1 m/s 740 mmHg 84%
    07:00 +22°C° 0 mm 1 m/s 741 mmHg 81%
    08:00 +25°C° 0 mm 1 m/s 741 mmHg 73%
    09:00 +27°C° 0 mm 1 m/s 741 mmHg 65%
    10:00 +29°C° 0 mm 1 m/s 741 mmHg 57%
    11:00 +31°C° 0 mm 1 m/s 740 mmHg 54%
    12:00 +30°C° 0 mm 0 m/s 739 mmHg 51%
    13:00 +32°C° 0 mm 0 m/s 738 mmHg 48%
    14:00 +31°C° 0 mm 0 m/s 738 mmHg 52%
    15:00 +30°C° 0 mm 0 m/s 737 mmHg 57%
    16:00 +29°C° 0 mm 0 m/s 736 mmHg 61%
    17:00 +28°C° 0 mm 0 m/s 737 mmHg 66%
    18:00 +26°C° 0 mm 0 m/s 737 mmHg 71%
    19:00 +24°C° 0 mm 0 m/s 737 mmHg 75%
    20:00 +24°C° 0 mm 0 m/s 738 mmHg 77%
    21:00 +23°C° 0 mm 0 m/s 738 mmHg 78%
    22:00 +23°C° 0 mm 0 m/s 739 mmHg 80%
    23:00 +23°C° 0 mm 0 m/s 738 mmHg 82%

    26 Mai, Dimanche

    Heure Température Précipitation Vent Pression Humidité
    00:00 +22°C° 0 mm 0 m/s 738 mmHg 83%
    01:00 +22°C° 0 mm 0 m/s 738 mmHg 85%
    02:00 +22°C° 0 mm 0 m/s 738 mmHg 86%
    03:00 +22°C° 0 mm 0 m/s 738 mmHg 87%
    04:00 +21°C° 0 mm 0 m/s 738 mmHg 88%
    05:00 +22°C° 0 mm 0 m/s 738 mmHg 86%
    06:00 +23°C° 0 mm 0 m/s 739 mmHg 85%
    07:00 +23°C° 0 mm 0 m/s 739 mmHg 83%
    08:00 +26°C° 0 mm 0 m/s 739 mmHg 73%
    09:00 +30°C° 0 mm 1 m/s 740 mmHg 64%
    10:00 +33°C° 0 mm 1 m/s 740 mmHg 54%
    11:00 +33°C° 0 mm 1 m/s 739 mmHg 51%
    12:00 +34°C° 0 mm 1 m/s 738 mmHg 49%
    13:00 +35°C° 0 mm 1 m/s 737 mmHg 46%
    14:00 +34°C° 0 mm 1 m/s 737 mmHg 50%
    15:00 +34°C° 0 mm 1 m/s 736 mmHg 55%
    16:00 +33°C° 0 mm 1 m/s 736 mmHg 59%
    17:00 +31°C° 0 mm 1 m/s 736 mmHg 65%
    18:00 +29°C° 0 mm 1 m/s 737 mmHg 72%
    19:00 +27°C° 0 mm 1 m/s 737 mmHg 79%
    20:00 +27°C° 0 mm 1 m/s 737 mmHg 81%
    21:00 +26°C° 0 mm 1 m/s 738 mmHg 84%
    22:00 +26°C° 0 mm 1 m/s 738 mmHg 86%
    23:00 +26°C° 0 mm 1 m/s 738 mmHg 87%

    27 Mai, Lundi

    Heure Température Précipitation Vent Pression Humidité
    00:00 +25°C° 0 mm 1 m/s 737 mmHg 87%
    01:00 +25°C° 0 mm 1 m/s 737 mmHg 87%
    02:00 +25°C° 0 mm 1 m/s 737 mmHg 88%
    03:00 +25°C° 0 mm 1 m/s 737 mmHg 89%
    04:00 +25°C° 0 mm 1 m/s 737 mmHg 90%
    05:00 +25°C° 0 mm 1 m/s 738 mmHg 88%
    06:00 +26°C° 0 mm 1 m/s 738 mmHg 86%
    07:00 +26°C° 0 mm 1 m/s 739 mmHg 84%
    08:00 +28°C° 0 mm 1 m/s 739 mmHg 75%
    09:00 +31°C° 0 mm 1 m/s 739 mmHg 65%
    10:00 +34°C° 0 mm 2 m/s 739 mmHg 56%
    11:00 +34°C° 0 mm 1 m/s 738 mmHg 53%
    12:00 +34°C° 0 mm 1 m/s 738 mmHg 50%
    13:00 +35°C° 0 mm 1 m/s 737 mmHg 47%
    14:00 +35°C° 0 mm 1 m/s 736 mmHg 52%
    15:00 +34°C° 0 mm 1 m/s 736 mmHg 57%
    16:00 +31°C° 0 mm 0 m/s 735 mmHg 61%
    17:00 +29°C° 0 mm 0 m/s 736 mmHg 66%
    18:00 +28°C° 0 mm 0 m/s 736 mmHg 71%
    19:00 +26°C° 0 mm 0 m/s 736 mmHg 76%
    20:00 +26°C° 0 mm 0 m/s 737 mmHg 77%
    21:00 +25°C° 0 mm 0 m/s 737 mmHg 79%
    22:00 +25°C° 0 mm 0 m/s 737 mmHg 80%
    23:00 +25°C° 0 mm 0 m/s 737 mmHg 82%
    Voir plus